カタログに戻る

ONEWEB-0131

運用中通信PO
NORAD 47277·PAYLOAD·🇬🇧 United Kingdom

打ち上げ Dec 18, 2020 から Vostochny Cosmodrome

Loading…

次のパス (今後24時間)

TLE

最新Source: CelesTrak SupGP

元期: Sep 14, 2026, 17:02 UTC

1 47277C 20100V   26257.70991157  .00000599  00000+0  16683-2 0  2576
2 47277  87.8970 332.8924 0001959  97.5157   1.7527 13.12438941    16

AllMySatでONEWEB-0131をリアルタイム追跡

Download on the App Store